#timestamp,LO_Frequency,Hit,StdDev 
1523829615.8,286046998.7,P
1523829635.7,286047001.1,Y
1523829655.5,286047001.4,P
1523829675.3,286047000.4,N
1523829695.2,286047001.4,N
1523829715.0,286047003.7,Y
1523829715.9,286047003.7,P
1523829735.8,286047002.3,N
1523829755.6,286047004.2,P
1523829775.4,286047004.1,N
1523829795.3,286047004.0,N
1523829815.1,286047003.2,N
1523829835.8,286047002.6,N
1523829855.7,286047000.4,N
1523829875.5,286047001.0,N
1523829895.4,286046998.5,N
1523829915.2,286047001.1,N
1523829935.0,286046998.5,N
1523829935.9,286046998.5,N
1523829955.8,286046998.6,N
1523829975.6,286046998.4,N
1523829995.4,286046998.5,N
1523830015.3,286046999.2,N
1523830035.1,286046999.1,N
1523830055.9,286046998.6,N
1523830105.7,286046998.3,E
1523830115.6,286046998.1,N
1523830135.5,286046999.8,P
1523830155.3,286046999.7,N
1523830175.1,286047001.6,N
1523830195.9,286047004.4,Y
1523830215.7,286047005.9,P
1523830235.6,286047003.2,N
1523830255.4,286047003.3,N
1523830275.2,286047005.8,N
1523830295.1,286047005.8,N
1523830296.0,286047005.8,N
1523830315.8,286047003.1,N
1523830335.7,286047004.2,N
1523830355.5,286047005.7,N
1523830375.3,286047005.1,N
1523830395.2,286047003.5,N
1523830415.9,286047004.2,N
1523830435.7,286047003.8,N
1523830455.6,286047003.6,N
1523830475.4,286047003.5,N
1523830495.3,286047005.5,Y
1523830515.1,286046999.7,P
1523830516.0,286046999.7,N
1523830535.8,286047000.5,N
1523830555.7,286046998.2,N
1523830575.5,286047001.2,N
1523830595.3,286046998.5,N
1523830615.2,286047000.4,N
1523830635.0,286046999.7,N
1523830635.9,286046999.7,N
1523830655.8,286047000.5,N
1523830675.6,286047000.1,N
1523830695.4,286047000.3,N
1523830715.3,286046999.9,N
1523830735.1,286047000.6,N
1523830755.9,286046998.4,N
1523830775.7,286047000.2,N
1523830795.5,286047001.2,N
1523830815.4,286046999.8,N
1523830835.2,286047001.2,N
1523830855.0,286047000.5,N
1523830855.9,286047000.5,N
1523830875.8,286046998.6,N
1523830895.6,286046998.6,N
1523830915.5,286047002.7,N
1523830935.3,286047001.8,N
1523830955.1,286047001.9,N
1523830975.9,286047001.1,N
1523830995.7,286047002.6,N
1523831015.5,286047002.6,N
1523831035.4,286047001.7,N
1523831055.2,286047003.3,N
1523831075.1,286047003.5,N
1523831076.0,286047003.5,N
1523831095.8,286047003.3,N
1523831115.6,286047004.1,N
1523831135.5,286047004.1,N
1523831155.3,286047004.4,N
1523831175.2,286047003.6,N
1523831195.9,286047001.6,N
1523831215.7,286047001.9,N
1523831235.6,286047002.1,N
1523831255.4,286047002.7,N
1523831275.2,286047001.5,N
1523831295.1,286047001.9,N
1523831296.0,286047001.9,N
1523831315.8,286047002.3,N
1523831335.7,286046998.3,N
1523831355.5,286046997.0,N
1523831375.3,286046997.7,N
1523831395.2,286046995.0,N
1523831415.0,286046995.1,N
1523831415.9,286046995.1,N
1523831435.8,286046997.0,N
1523831455.6,286046997.4,N
1523831475.4,286046997.5,N
1523831495.3,286046997.0,N
1523831515.1,286046998.9,N
1523831535.9,286046999.1,N
1523831555.7,286046997.0,N
1523831575.5,286046997.5,N
1523831595.4,286046997.4,N
1523831615.2,286046997.4,N
1523831635.0,286046997.3,N
1523831635.9,286046997.3,N
1523831655.8,286046997.0,N
1523831675.6,286046997.3,N
1523831695.5,286046997.4,N
1523831715.3,286046997.2,N
1523831735.1,286046998.0,N
1523831755.9,286046997.8,N
1523831775.7,286046995.0,N
1523831795.5,286046995.0,N
1523831815.4,286046994.9,N
1523831835.2,286046997.9,N
1523831855.1,286046997.8,N
1523831856.0,286046997.8,N
1523831875.8,286046997.7,N
1523831895.6,286046997.4,N
1523831915.5,286046996.5,Y
1523831935.3,286047000.5,P
1523831955.2,286046998.7,N
1523831975.9,286046999.0,N
1523831995.7,286046999.1,N
1523832015.6,286046998.8,N
1523832035.4,286046999.2,N
1523832055.2,286046999.2,N
1523832075.1,286046999.3,N
1523832076.0,286046999.3,N
1523832095.8,286046998.8,N
1523832115.7,286046997.7,Y
1523832135.5,286046999.1,P
1523832155.3,286046996.5,P
1523832175.2,286046997.0,N
1523832195.0,286046997.4,N
1523832195.9,286046997.4,N
1523832215.8,286046999.0,N
1523832235.6,286046998.3,N
1523832255.4,286046998.8,N
1523832275.3,286047001.2,N
1523832295.1,286046998.8,N
1523832315.8,286046998.9,N
1523832335.7,286046998.6,N
1523832355.5,286046999.6,N
1523832375.4,286046999.6,N
1523832395.2,286046999.0,N
1523832415.0,286046997.0,N
1523832415.9,286046997.0,N
1523832435.8,286046998.9,N
1523832455.6,286047000.3,N
1523832475.4,286047000.0,N
1523832495.3,286046998.3,N
1523832515.1,286046998.4,N
1523832535.9,286046998.7,N
1523832555.7,286046998.7,N
1523832575.5,286046998.8,N
1523832595.4,286046998.7,N
1523832615.2,286046999.6,N
1523832635.1,286046997.9,N
1523832636.0,286046997.9,N
1523832655.8,286046995.0,Y
1523832675.7,286046997.1,P
1523832695.5,286046996.8,P
1523832715.3,286046995.3,P
1523832735.2,286046995.0,Y
1523832755.0,286046998.1,P
1523832755.9,286046998.1,P
1523832775.7,286047000.6,N
1523832795.6,286047002.2,N
1523832815.4,286047004.0,N
1523832835.3,286047003.7,N
1523832855.1,286047005.7,N
1523832856.0,286047005.7,N
1523832875.8,286047003.9,N
1523832895.7,286047004.0,N
1523832915.5,286046999.7,N
1523832935.3,286047000.2,N
1523832955.2,286047002.8,N
1523832975.0,286047000.1,N
1523832975.9,286047000.1,N
1523832995.8,286047001.1,N
1523833015.6,286047001.0,N
1523833035.4,286047000.2,N
1523833055.3,286047000.4,N
1523833075.1,286047000.2,N
1523833095.9,286046998.2,N
1523833115.7,286046999.8,N
1523833135.5,286047000.7,N
1523833185.4,286047003.2,E
1523833195.3,286047002.7,N
